Flag for Germany Weather past 2 weeks in Alsfeld, Hesse, Germany

Now
43 °F

Fog.


Feels Like: 43 °F
Forecast: 46 / 59 °F
Wind: 1 mph from Southeast

Location: Fritzlar

Current Time: Sep 24, 2014 at 4:34:07 AM

Latest Report: Sep 24, 2014 at 4:00 AM


Visibility: 6 mi

Pressure: 30.06 "Hg

Humidity: 97%

Dew point: 42 °F

Location of AlsfeldLocation

Historic Weather in Alsfeld — Graph

°F

Alsfeld temperature yesterday

Maximum temperature yesterday: 58 °F (at 5:00 PM)
Minimum temperature yesterday: 45 °F (at 8:00 AM)
Average temperature yesterday: 52 °F

Past Weeks' High & Low Weather Summary

 TemperatureHumidityPressure
High74 °F (Sep 17, 3:00 PM)99% (Sep 20, 7:00 AM)30.22 "Hg (Sep 20, 7:00 AM)
Low44 °F (Sep 24, 3:00 AM)54% (Sep 23, 1:00 PM)29.89 "Hg (Sep 17, 6:00 PM)
Average59 °F83%30.04 "Hg
* Reported Sep 9 3:00 AM — Sep 24 3:00 AM, Alsfeld, Weather by CustomWeather, © 2014

Note: Actual official high and low records may vary slightly from our data, if they occured in-between our weather recording intervals... More about our weather records

Advertising

Alsfeld weather history for previous 24 hours

 ConditionsComfort  
Time TempWeatherWind HumidityBarometerVisibility
3:00 AM
Sep 24
44 °FPassing clouds.N/A96%30.09 "Hg9 mi
2:00 AM45 °FPassing clouds.1 mph96%30.09 "Hg9 mi
1:00 AM45 °FPassing clouds.1 mph96%30.09 "Hg9 mi
12:00 AM46 °FPassing clouds.1 mph94%30.10 "Hg9 mi
11:00 PM
Sep 23
49 °FPassing clouds.1 mph90%30.10 "Hg12 mi
10:00 PM51 °FOvercast.N/A86%30.11 "Hg12 mi
9:00 PM53 °FOvercast.1 mph83%30.11 "Hg12 mi
8:00 PM54 °FOvercast.N/A75%30.11 "Hg19 mi
7:00 PM56 °FOvercast.1 mph65%30.10 "Hg22 mi
6:00 PM57 °FPartly sunny.2 mph59%30.10 "Hg22 mi
5:00 PM58 °FPartly sunny.3 mph55%30.11 "Hg22 mi
4:00 PM57 °FScattered clouds.3 mph55%30.14 "Hg22 mi
3:00 PM57 °FScattered clouds.2 mph54%30.14 "Hg22 mi
2:00 PM56 °FPartly sunny.3 mph56%30.17 "Hg22 mi
1:00 PM56 °FPartly sunny.2 mph54%30.17 "Hg22 mi
12:00 PM55 °FPartly sunny.2 mph70%30.19 "Hg16 mi
11:00 AM51 °FPartly sunny.1 mph77%30.20 "Hg16 mi
10:00 AM49 °FPartly sunny.N/A79%30.20 "Hg16 mi
9:00 AM47 °FPartly sunny.2 mph89%30.19 "Hg16 mi
8:00 AM45 °FPartly sunny.2 mph89%30.18 "Hg16 mi
7:00 AM46 °FPassing clouds.N/A88%30.16 "Hg12 mi
6:00 AM49 °FOvercast.1 mph84%30.15 "Hg12 mi
5:00 AM50 °FOvercast.2 mph83%30.14 "Hg12 mi
4:00 AM50 °FOvercast.2 mph82%30.14 "Hg12 mi
Weather by CustomWeather, © 2014

See weather overviewHow to use our weather pages